Tracking 22456 objects as of 7-Mar-2021
HD Live streaming from Space Station
objects crossing your sky now

STARLINK-1341

Track STARLINK-1341 now!
10-day predictions


NORAD ID: 45534
Int'l Code: 2020-025D
Perigee: 553.2 km
Apogee: 555.5 km
Inclination: 53.1 °
Period: 95.6 minutes
Semi major axis: 6925 km
RCS: Unknown
Launch date: April 22, 2020
Source: United States (US)
Launch site: AIR FORCE EASTERN TEST RANGE (AFETR)
aabbcc
Your satellite tracking list
Your tracking list is empty




NASA's NSSDC Master Catalog

Two Line Element Set (TLE):
1 45534U 20025D   21065.32905687 -.00001356  00000-0 -72162-4 0  9993
2 45534  53.0588  38.9191 0001621  65.7689 294.3469 15.06393443 49361
Source of the keplerian elements: AFSPC